Погода в Далласе

США     32°49′10″N   96°43′35″W
темп.,
°C
ветер,
м/с
пор.,
м/с
влажн.,
%
обл.,
%
осадки,
мм/ч
давл.,
гПа
погр.,
м
16 октября, сб
сб1601:00+17с410490 0.0 1024662
04:00+16ссв49520 0.0 1026569
07:00+15с27540 0.0 1027345
10:00+17с35410 0.0 1028482
13:00+21с45240 0.0 10281722
16:00+22с46220 0.0 10251769
19:00+20с36280 0.0 1025422
22:00+18всв24370 0.0 1026202
17 октября, вс
вс1701:00+16в12390 0.0 102677
04:00+15вюв114192 0.0 102642
07:00+14юв124338 0.0 102655
10:00+17юв113577 0.0 1027310
13:00+21юв1226100 0.0 1025878
16:00+22юв2225100 0.0 10221171
19:00+20ююв2431100 0.0 1022309
22:00+19юв2436100 0.0 1022138
18 октября, пн
пн1801:00+17ююв25415 0.0 1022161
04:00+15ююв24450 0.0 1021146
07:00+14юв24470 0.0 1021150
10:00+17ююв35400 0.0 1021346
13:00+22ю45315 0.0 10191080
16:00+24ю462761 0.0 10171327
19:00+21ю4836100 0.0 1016538
22:00+19ю41045100 0.0 1017517
19 октября, вт
вт1901:00+18ю31054100 0.0 1017435
04:00+17ю41164100 0.0 1017440
07:00+16ююв41074100 0.0 1018351
10:00+18ю596875 0.0 1019497
13:00+23ю575099 0.0 10181092
16:00+25ю5744100 0.0 10151388
19:00+23ю4955100 0.0 1016827
22:00+22ю51163100 0.0 1017679
20 октября, ср
ср2001:00+21ю41167100 0.0 1017558
04:00+19ю3118293 1.4 1017463
07:00+18ю39880 2.0 1018309
10:00+21ю36740 0.0 1020407
13:00+26ююз34540 0.0 10191019
16:00+28ююз34490 0.0 10161294
19:00+26ююв23570 0.0 101680
22:00+24ююв26610 0.1 1018172